Regional Weather Roundup
Issued by NWS

Home | Current Version | Previous Version | Text Only | Print | Product List | Glossary Off
Versions: 1 2 3 4 5 6 7 8 9 10 11 12 13 14 15 16 17 18 19 20 21 22 23 24 25 26 27 28 29 30 31 32 33 34 35 36 37 38 39 40 41 42 43 44 45 46 47 48 49 50

000
ASUS45 KBOU 291610
RWRCO

WEATHER ROUNDUP FOR COLORADO
NATIONAL WEATHER SERVICE DENVER/BOULDER CO
1000 AM MDT MON JUN 29 2015

NOTE: "FAIR" INDICATES FEW OR NO CLOUDS BELOW 12000 FEET WITH NO
SIGNIFICANT WEATHER AND/OR OBSTRUCTIONS TO VISIBILITY.

COZ001>005-013-030-031-291700-
...NORTHWEST COLORADO...

CITY           SKY/WX    TMP DP  RH WIND       PRES   REMARKS
CRAIG          SUNNY     77  48  35 VRB5      30.30F
HAYDEN         SUNNY     73  45  35 NE3       30.32F
MEEKER         SUNNY     74  49  41 MISG      30.31F
MOUNT WERNER   NOT AVBL
STEAMBOAT SPGS SUNNY     69  49  47 CALM      30.34F
WALDEN         SUNNY     64  43  45 SW3       30.44S
$$

COZ006>008-011-291700-
...WEST CENTRAL VALLEYS...

CITY           SKY/WX    TMP DP  RH WIND       PRES   REMARKS
GRAND JUNCTION SUNNY     85  46  25 SE12      30.17F
MONTROSE       MOSUNNY   82  46  28 SE5       30.27F
EAGLE          SUNNY     72  46  40 CALM      30.35F
RIFLE          SUNNY     80  46  30 N6        30.24F
DELTA          MOSUNNY   85  45  25 S5        30.22F
NUCLA          MOSUNNY   79  43  27 E3        30.31F
$$

COZ017>023-064>068-291700-
...SOUTHWEST COLORADO...

CITY           SKY/WX    TMP DP  RH WIND       PRES   REMARKS
DURANGO        SUNNY     75  46  35 CALM      30.33S
CORTEZ         SUNNY     82  47  29 SE5       30.27F
PAGOSA SPRINGS SUNNY     68  47  47 CALM      30.41F
TELLURIDE      PTSUNNY   65  47  51 CALM      30.54F
WOLF CREEK PAS NOT AVBL
$$

COZ009-010-012-014-032>034-037-058>063-291700-
...CENTRAL COLORADO...

CITY           SKY/WX    TMP DP  RH WIND       PRES   REMARKS
ASPEN          SUNNY     71  46  40 N3        30.40F
BUENA VISTA    PTSUNNY   66  48  52 CALM      30.42F
COPPER MTN     SUNNY     59  36  41 W16G24    30.73S
BERTHOUD PASS  FAIR      50  41  71 MISG      30.78S
COTTONWOOD PAS NOT AVBL
GUNNISON       MOSUNNY   64  46  52 CALM      30.47F
KREMMLING      SUNNY     70  43  37 CALM      30.41F
LEADVILLE      MOSUNNY   65  42  43 CALM      30.55S
MONARCH PASS   PTSUNNY   52  39  62 W12       30.82S
SALIDA         MOSUNNY   67  51  56 CALM      30.46F
SUNLIGHT       SUNNY     64  43  45 CALM      30.66F
WILKERSON PASS PTSUNNY   55  41  58 E5        30.69F
$$

COZ069>075-291700-
...SAN LUIS VALLEY/SANGRE DE CRISTO MOUNTAINS...

CITY           SKY/WX    TMP DP  RH WIND       PRES   REMARKS
ALAMOSA        CLOUDY    66  48  52 VRB3      30.40F
LA VETA PASS   PTSUNNY   61  41  48 MISG      30.58S
SAGUACHE       CLOUDY    68  46  45 N3        30.43F
$$

COZ035-036-038>040-291700-
...NORTHERN COLORADO FRONT RANGE...

CITY           SKY/WX    TMP DP  RH WIND       PRES   REMARKS
DENVER INTL AP MOSUNNY   75  56  51 W8        30.26F
DMNS CITY PARK   N/A     76  54  45 NE1G7     30.26F
AURORA         MOSUNNY   73  58  60 NW7       30.29F
FRONT RANGE AP MOSUNNY   75  59  57 MISG      30.28S
ERIE MUNI ARPT SUNNY     75  56  50 NW5       30.25F
BOULDER MUN AP SUNNY     73  52  46 CALM      30.26F
CENTENNIAL     MOSUNNY   72  55  55 W9        30.30S
BROOMFIELD     MOSUNNY   73  54  49 NW3       30.29F
FORT COLLINS   SUNNY     73  55  53 SW5       30.26F
LONGMONT       SUNNY     79  53  41 CALM      30.26F
$$

COZ041-046-047-076>085-087-088-291700-
...PIKES PEAK/PALMER DIVIDE AND SOUTHERN FOOTHILLS...

CITY           SKY/WX    TMP DP  RH WIND       PRES   REMARKS
COLO. SPRINGS  PTSUNNY   71  54  54 E13       30.33F
A. F. ACADEMY  PTSUNNY   72  51  46 N9        30.34R
ELLICOTT       PTSUNNY  N/A N/A N/A E15G22    30.31S
FALCON         PTSUNNY   69  53  56 NE9       30.38F
FORT CARSON    CLOUDY    72  55  55 E13       30.30S
LIMON          CLOUDY    66  56  70 SW7       30.26S
MONUMENT HILL  PTSUNNY   70  52  52 NW7         N/A
TRINIDAD       PTSUNNY   77  49  37 E9        30.28R
$$

COZ042>045-048>051-090-091-291700-
...NORTHEAST COLORADO...

CITY           SKY/WX    TMP DP  RH WIND       PRES   REMARKS
GREELEY ARPT   SUNNY     75  57  53 W3        30.24F
AKRON          MOSUNNY   80  52  37 S9        30.19S
BURLINGTON     CLOUDY    80  50  34 S9        30.16F
WRAY           SUNNY     86  50  28 CALM      30.13R
STERLING       MOSUNNY   84  55  37 S5        30.15S
HOLYOKE        SUNNY     84  52  32 CALM      30.14S
FORT MORGAN    NOT AVBL
$$

COZ086-089-092>099-291700-
...SOUTHEAST COLORADO...

CITY           SKY/WX    TMP DP  RH WIND       PRES   REMARKS
PUEBLO         MOSUNNY   76  59  55 E12       30.22S
LA JUNTA       CLOUDY    71  61  70 N8        30.21R
LAMAR          CLOUDY    73  58  59 NE5       30.16F
SPRINGFIELD      N/A     77  51  40 E8        30.19R
$$



USA.gov is the U.S. government's official web portal to all federal, state and local government web resources and services.